West Palm Beach, FL

1:48 AM EDT on October 16, 2019 (GMT -0400)
Palm Beach International

Weather History for KPBI - September, 2019

Change the Weather History Date:

Sunday, September 15, 2019

  Actual Average Record
Temperature  
Mean Temperature 84 °F 82 °F  
Max Temperature 91 °F 88 °F 94 °F (1950)
Min Temperature 76 °F 75 °F 65 °F (1918)
Degree Days  
Heating Degree Days 0 0  
Month to date heating degree days 0 0  
Since 1 July heating degree days 0 0  
Cooling Degree Days 19 17  
Month to date cooling degree days 286 255  
Year to date cooling degree days 3452 2961  
Growing Degree Days 33 (Base 50)    
Moisture  
Dew Point 75 °F    
Average Humidity 77    
Maximum Humidity 94    
Minimum Humidity 59    
Precipitation  
Precipitation 0.00 in 0.30 in 2.85 in (1923)
Month to date precipitation 1.25 4.22  
Year to date precipitation 45.21 44.94  
Snow  
Snow 0.00 in - - ()
Month to date snowfall 0.0  
Since 1 July snowfall 0.0  
Since 1 September snowfall 0.0  
Snow Depth 0.00 in    
Sea Level Pressure  
Sea Level Pressure 29.90 in    
Wind  
Wind Speed 10 mph (WNW)    
Max Wind Speed 21 mph    
Max Gust Speed 26 mph    
Visibility 10 miles    
Events      
T = Trace of Precipitation, MM = Missing Value Source: NWS Daily Summary

Daily Weather History Graph

Daily Weather History Graph

Search for Another Location

Airport or City:

Astronomy

Sep. 15, 2019 Rise Set
Actual Time 7:05 AM EDT 7:25 PM EDT
Civil Twilight 6:42 AM EDT 7:48 PM EDT
Nautical Twilight 6:15 AM EDT 8:15 PM EDT
Astronomical Twilight 5:48 AM EDT 8:42 PM EDT
Moon 8:37 PM EDT (9/15) 8:12 AM EDT (9/15)
Length of Visible Light 13h 05m
Length of Day
12h 19m
Full, 98% of the Moon is Illuminated
Sep 15
Full
Sep 21
Last Quarter
Sep 28
New
Oct 5
First Quarter
Oct 13
Full

Hourly Weather History & Observations

Time (EDT) Temp. Heat Index Dew Point Humidity Pressure Visibility Wind Dir Wind Speed Gust Speed Precip Events Conditions
12:53 AM 79.0 °F - 75.9 °F 90% 29.93 in 10.0 mi WNW 8.1 mph - N/A   Mostly Cloudy
1:53 AM 78.1 °F - 75.0 °F 90% 29.91 in 10.0 mi WSW 6.9 mph - N/A   Mostly Cloudy
2:53 AM 77.0 °F - 75.0 °F 94% 29.89 in 10.0 mi WNW 6.9 mph - N/A   Mostly Cloudy
3:53 AM 77.0 °F - 75.0 °F 94% 29.88 in 10.0 mi WNW 6.9 mph - N/A   Mostly Cloudy
4:53 AM 77.0 °F - 73.9 °F 90% 29.89 in 10.0 mi West 6.9 mph - N/A   Scattered Clouds
5:53 AM 77.0 °F - 73.9 °F 90% 29.89 in 10.0 mi West 9.2 mph - N/A   Scattered Clouds
6:53 AM 77.0 °F - 73.9 °F 90% 29.90 in 10.0 mi West 9.2 mph - N/A   Scattered Clouds
7:53 AM 78.1 °F - 75.0 °F 90% 29.92 in 10.0 mi West 6.9 mph - N/A   Scattered Clouds
8:53 AM 81.0 °F 87.3 °F 75.9 °F 85% 29.92 in 10.0 mi West 8.1 mph - N/A   Scattered Clouds
9:53 AM 84.0 °F 92.6 °F 75.9 °F 76% 29.93 in 10.0 mi NW 8.1 mph - N/A   Scattered Clouds
10:53 AM 84.9 °F 93.3 °F 75.0 °F 72% 29.92 in 10.0 mi WNW 9.2 mph - N/A   Scattered Clouds
11:53 AM 88.0 °F 98.5 °F 75.9 °F 67% 29.93 in 10.0 mi West 15.0 mph 19.6 mph N/A   Scattered Clouds
12:53 PM 88.0 °F 96.5 °F 73.9 °F 63% 29.91 in 10.0 mi West 15.0 mph - N/A   Scattered Clouds
1:53 PM 89.1 °F 97.0 °F 73.0 °F 59% 29.90 in 10.0 mi West 17.3 mph - N/A   Scattered Clouds
2:53 PM 90.0 °F 99.0 °F 73.9 °F 59% 29.88 in 10.0 mi West 17.3 mph - N/A   Scattered Clouds
3:53 PM 88.0 °F 96.5 °F 73.9 °F 63% 29.87 in 10.0 mi NNW 17.3 mph - N/A   Mostly Cloudy
4:05 PM 86.0 °F 93.8 °F 73.9 °F 67% 29.88 in 10.0 mi NNW 18.4 mph 23.0 mph N/A   Mostly Cloudy
4:53 PM 87.1 °F 95.4 °F 73.9 °F 65% 29.87 in 10.0 mi NNW 11.5 mph - N/A   Mostly Cloudy
5:53 PM 88.0 °F 96.5 °F 73.9 °F 63% 29.87 in 10.0 mi WNW 13.8 mph - N/A   Mostly Cloudy
6:53 PM 86.0 °F 93.0 °F 73.0 °F 65% 29.87 in 10.0 mi NW 9.2 mph - N/A   Mostly Cloudy
7:53 PM 84.0 °F 91.2 °F 73.9 °F 72% 29.89 in 10.0 mi NW 9.2 mph - N/A   Mostly Cloudy
8:53 PM 84.0 °F 91.9 °F 75.0 °F 74% 29.90 in 10.0 mi NW 6.9 mph - N/A   Mostly Cloudy
9:53 PM 82.9 °F 90.2 °F 75.0 °F 77% 29.92 in 10.0 mi WSW 6.9 mph - N/A   Mostly Cloudy
10:53 PM 82.0 °F 89.4 °F 75.9 °F 82% 29.93 in 10.0 mi West 6.9 mph - N/A   Mostly Cloudy
11:53 PM 81.0 °F 86.7 °F 75.0 °F 82% 29.92 in 10.0 mi West 8.1 mph - N/A   Scattered Clouds